Regional Weather Roundup
Issued by NWS

Home | Current Version | Previous Version | Graphics & Text | Print | Product List | Glossary Off
Versions: 1 2 3 4 5 6 7 8 9 10 11 12 13 14 15 16 17 18 19 20 21 22 23 24 25 26 27 28 29 30 31 32 33 34 35 36 37 38 39 40 41 42 43 44 45 46 47 48 49 50

000
ASUS43 KBIS 250610
RWRND

NORTH DAKOTA REGIONAL WEATHER ROUNDUP
NATIONAL WEATHER SERVICE BISMARCK ND
1200 AM CST SAT NOV 25 2017

NOTE: "FAIR" INDICATES FEW OR NO CLOUDS BELOW 12,000 FEET WITH NO
SIGNIFICANT WEATHER AND/OR OBSTRUCTIONS TO VISIBILITY.


NDZ001>003-009>011-017-250700-
NORTHWEST NORTH DAKOTA

CITY           SKY/WX    TMP DP  RH WIND       PRES   REMARKS
WILLISTON      CLEAR     31  24  75 CALM      29.90R
6HR MIN TEMP:  31; 6HR MAX TEMP:  45;

MINOT          CLEAR     30  27  88 SW9       29.88R
MINOT AFB      CLEAR     28  26  92 W8        29.87R WCI  19
$$

NDZ018>021-031>035-040>046-250700-
SOUTHWEST NORTH DAKOTA

CITY           SKY/WX    TMP DP  RH WIND       PRES   REMARKS
BISMARCK       CLEAR     37  30  75 W8        29.92R
6HR MIN TEMP:  37; 6HR MAX TEMP:  48;

DICKINSON      CLOUDY    32  25  75 W9        29.90S
GARRISON         N/A     27  25  92 N9        29.89R WCI  18
6HR MIN TEMP:  27; 6HR MAX TEMP:  40;

HETTINGER ARPT CLOUDY    26  23  88 W5        29.97R
$$

NDZ004>008-012>016-024-026-027-054-250700-
NORTHEAST NORTH DAKOTA

CITY           SKY/WX    TMP DP  RH WIND       PRES   REMARKS
GRAND FORKS    CLOUDY    28  23  81 N13G25    29.87R WCI  17
GRND FRKS AFB  CLOUDY    27  21  80 NE10      29.87R WCI  17
DEVILS LAKE    CLEAR     30  28  92 NW7       29.87R
$$

NDZ022-023-025-028>030-036>039-047>053-250700-
SOUTHEAST NORTH DAKOTA

CITY           SKY/WX    TMP DP  RH WIND       PRES   REMARKS
FARGO          CLEAR     36  31  82 NW15      29.84R
6HR MIN TEMP:  35; 6HR MAX TEMP:  42;

JAMESTOWN      CLEAR     33  29  85 NW12      29.87R
$$




USA.gov is the U.S. government's official web portal to all federal, state and local government web resources and services.